When you browse on this site, cookies collect data to enhance your experience and personalize the content and advertising you see.
Visit our Privacy Policy to learn more. By continuing to use the site, you agree to this use of cookies and data.
  • In Portugal
  • List of Countries
  • For 7 days
  • Water Temperature
  • Satellite Maps
  • Weather Map
  • Weather Widgets
  • user-avatar
    Login

    Hourly Weather Elbasan

    Today, 16 December, Sunday

    Time Temperature Precipitation Wind Pressure Humidity
    00:00 +8°C° 1.6 mm 2 mps 732 mmHg 95%
    01:00 +8°C° 0 mm 2 mps 732 mmHg 96%
    02:00 +8°C° 0.6 mm 2 mps 732 mmHg 96%
    03:00 +8°C° 0.6 mm 3 mps 732 mmHg 95%
    04:00 +8°C° 0.6 mm 3 mps 732 mmHg 95%
    05:00 +7°C° 0.1 mm 3 mps 732 mmHg 94%
    06:00 +7°C° 0.1 mm 2 mps 733 mmHg 93%
    07:00 +7°C° 0 mm 2 mps 733 mmHg 92%
    08:00 +7°C° 0 mm 2 mps 733 mmHg 87%
    09:00 +7°C° 0 mm 3 mps 734 mmHg 81%
    10:00 +8°C° 0 mm 3 mps 734 mmHg 76%
    11:00 +8°C° 0 mm 3 mps 734 mmHg 72%
    12:00 +8°C° 0 mm 3 mps 734 mmHg 68%
    13:00 +8°C° 0 mm 2 mps 734 mmHg 63%
    14:00 +7°C° 0 mm 2 mps 734 mmHg 67%
    15:00 +7°C° 0 mm 2 mps 735 mmHg 70%
    16:00 +6°C° 0 mm 2 mps 735 mmHg 74%
    17:00 +5°C° 0 mm 2 mps 735 mmHg 76%
    18:00 +6°C° 0 mm 1 mps 736 mmHg 79%
    19:00 +5°C° 0 mm 1 mps 736 mmHg 81%
    20:00 +5°C° 0 mm 1 mps 736 mmHg 80%
    21:00 +5°C° 0 mm 1 mps 736 mmHg 79%
    22:00 +4°C° 0 mm 1 mps 736 mmHg 78%
    23:00 +5°C° 0 mm 1 mps 736 mmHg 77%

    Tomorrow, 17 December, Monday

    Time Temperature Precipitation Wind Pressure Humidity
    00:00 +5°C° 0 mm 1 mps 736 mmHg 75%
    01:00 +5°C° 0 mm 1 mps 736 mmHg 73%
    02:00 +5°C° 0 mm 1 mps 736 mmHg 70%
    03:00 +5°C° 0 mm 1 mps 736 mmHg 67%
    04:00 +6°C° 0 mm 1 mps 735 mmHg 64%
    05:00 +6°C° 0.1 mm 1 mps 735 mmHg 62%
    06:00 +7°C° 0.1 mm 1 mps 735 mmHg 60%
    07:00 +7°C° 0.1 mm 1 mps 735 mmHg 58%
    08:00 +7°C° 0.1 mm 2 mps 734 mmHg 57%
    09:00 +7°C° 0.1 mm 2 mps 734 mmHg 56%
    10:00 +8°C° 0.1 mm 2 mps 734 mmHg 55%
    11:00 +8°C° 0.4 mm 3 mps 734 mmHg 61%
    12:00 +8°C° 0.4 mm 3 mps 733 mmHg 66%
    13:00 +7°C° 0.4 mm 3 mps 732 mmHg 72%
    14:00 +7°C° 0.9 mm 3 mps 732 mmHg 75%
    15:00 +7°C° 0.9 mm 3 mps 732 mmHg 79%
    16:00 +7°C° 0.9 mm 3 mps 731 mmHg 82%
    17:00 +7°C° 1.6 mm 3 mps 732 mmHg 84%
    18:00 +7°C° 1.6 mm 3 mps 732 mmHg 86%
    19:00 +5°C° 1.6 mm 3 mps 732 mmHg 87%
    20:00 +5°C° 2.1 mm 3 mps 732 mmHg 88%
    21:00 +5°C° 2.1 mm 3 mps 732 mmHg 88%
    22:00 +4°C° 2.1 mm 4 mps 733 mmHg 89%
    23:00 +4°C° 0.5 mm 3 mps 733 mmHg 88%

    Day after tomorrow, 18 December, Tuesday

    Time Temperature Precipitation Wind Pressure Humidity
    00:00 +4°C° 0.5 mm 3 mps 733 mmHg 87%
    01:00 +4°C° 0.5 mm 3 mps 733 mmHg 86%
    02:00 +4°C° 0.2 mm 3 mps 733 mmHg 86%
    03:00 +3°C° 0.2 mm 3 mps 734 mmHg 85%
    04:00 +3°C° 0.2 mm 3 mps 734 mmHg 85%
    05:00 +3°C° 0.2 mm 3 mps 734 mmHg 84%
    06:00 +2°C° 0.2 mm 3 mps 735 mmHg 84%
    07:00 +2°C° 0.2 mm 3 mps 735 mmHg 83%
    08:00 +3°C° 0 mm 3 mps 736 mmHg 82%
    09:00 +3°C° 0 mm 3 mps 736 mmHg 80%
    10:00 +4°C° 0 mm 3 mps 737 mmHg 78%
    11:00 +5°C° 0 mm 3 mps 736 mmHg 79%
    12:00 +5°C° 0 mm 3 mps 736 mmHg 79%
    13:00 +7°C° 0 mm 3 mps 736 mmHg 79%
    14:00 +5°C° 0 mm 3 mps 736 mmHg 80%
    15:00 +4°C° 0 mm 3 mps 737 mmHg 80%
    16:00 +4°C° 0 mm 3 mps 737 mmHg 81%
    17:00 +3°C° 0 mm 3 mps 737 mmHg 82%
    18:00 +3°C° 0 mm 3 mps 738 mmHg 82%
    19:00 +2°C° 0 mm 3 mps 738 mmHg 82%
    20:00 +2°C° 0 mm 3 mps 739 mmHg 82%
    21:00 +1°C° 0 mm 3 mps 739 mmHg 82%
    22:00 +2°C° 0 mm 2 mps 739 mmHg 81%
    23:00 +2°C° 0 mm 2 mps 739 mmHg 81%

    19 December, Wednesday

    Time Temperature Precipitation Wind Pressure Humidity
    00:00 +2°C° 0 mm 2 mps 739 mmHg 81%
    01:00 +1°C° 0 mm 2 mps 739 mmHg 80%
    02:00 +1°C° 0 mm 2 mps 739 mmHg 80%
    03:00 +1°C° 0 mm 2 mps 740 mmHg 79%
    04:00 +1°C° 0 mm 2 mps 740 mmHg 79%
    05:00 +1°C° 0 mm 2 mps 740 mmHg 78%
    06:00 +1°C° 0 mm 2 mps 740 mmHg 78%
    07:00 +1°C° 0 mm 2 mps 741 mmHg 77%
    08:00 +3°C° 0 mm 2 mps 741 mmHg 77%
    09:00 +6°C° 0 mm 1 mps 741 mmHg 77%
    10:00 +8°C° 0 mm 1 mps 741 mmHg 77%
    11:00 +8°C° 0 mm 1 mps 741 mmHg 76%
    12:00 +9°C° 0 mm 1 mps 740 mmHg 75%
    13:00 +9°C° 0 mm 0 mps 740 mmHg 74%
    14:00 +8°C° 0 mm 0 mps 740 mmHg 76%
    15:00 +8°C° 0 mm 1 mps 740 mmHg 77%
    16:00 +7°C° 0 mm 1 mps 740 mmHg 79%
    17:00 +6°C° 0 mm 1 mps 741 mmHg 79%
    18:00 +6°C° 0 mm 1 mps 741 mmHg 78%
    19:00 +5°C° 0 mm 1 mps 741 mmHg 78%
    20:00 +5°C° 0 mm 1 mps 741 mmHg 77%
    21:00 +5°C° 0 mm 1 mps 741 mmHg 76%
    22:00 +5°C° 0 mm 1 mps 741 mmHg 74%
    23:00 +5°C° 0 mm 1 mps 741 mmHg 73%

    20 December, Thursday

    Time Temperature Precipitation Wind Pressure Humidity
    00:00 +4°C° 0 mm 2 mps 741 mmHg 72%
    01:00 +4°C° 0 mm 2 mps 741 mmHg 71%
    02:00 +4°C° 0 mm 2 mps 741 mmHg 69%
    03:00 +4°C° 0 mm 2 mps 741 mmHg 68%
    04:00 +4°C° 0 mm 2 mps 741 mmHg 67%
    05:00 +4°C° 0 mm 2 mps 741 mmHg 66%
    06:00 +4°C° 0 mm 2 mps 741 mmHg 65%
    07:00 +4°C° 0 mm 2 mps 741 mmHg 64%
    08:00 +5°C° 0 mm 2 mps 742 mmHg 66%
    09:00 +7°C° 0 mm 2 mps 742 mmHg 68%
    10:00 +8°C° 0 mm 2 mps 742 mmHg 70%
    11:00 +9°C° 0 mm 2 mps 741 mmHg 70%
    12:00 +10°C° 0 mm 2 mps 741 mmHg 70%
    13:00 +10°C° 0 mm 2 mps 741 mmHg 70%
    14:00 +9°C° 0 mm 2 mps 740 mmHg 71%
    15:00 +8°C° 0 mm 2 mps 740 mmHg 72%
    16:00 +8°C° 0 mm 3 mps 740 mmHg 73%
    17:00 +7°C° 0 mm 3 mps 740 mmHg 74%
    18:00 +7°C° 0 mm 3 mps 740 mmHg 76%
    19:00 +7°C° 0 mm 3 mps 740 mmHg 77%
    20:00 +7°C° 0 mm 3 mps 740 mmHg 79%
    21:00 +7°C° 0 mm 3 mps 740 mmHg 81%
    22:00 +7°C° 0 mm 3 mps 740 mmHg 83%
    23:00 +7°C° 0.1 mm 3 mps 740 mmHg 84%

    21 December, Friday

    Time Temperature Precipitation Wind Pressure Humidity
    00:00 +7°C° 0.1 mm 3 mps 740 mmHg 86%
    01:00 +7°C° 0.1 mm 3 mps 740 mmHg 87%
    02:00 +8°C° 0.4 mm 3 mps 739 mmHg 89%
    03:00 +8°C° 0.4 mm 2 mps 739 mmHg 91%
    04:00 +8°C° 0.4 mm 2 mps 739 mmHg 93%
    05:00 +8°C° 0.2 mm 2 mps 739 mmHg 94%
    06:00 +8°C° 0.2 mm 2 mps 739 mmHg 95%
    07:00 +7°C° 0.2 mm 2 mps 739 mmHg 96%
    08:00 +8°C° 0.2 mm 2 mps 740 mmHg 92%
    09:00 +9°C° 0.2 mm 2 mps 740 mmHg 88%
    10:00 +10°C° 0.2 mm 2 mps 740 mmHg 84%
    11:00 +10°C° 0.2 mm 2 mps 740 mmHg 84%
    12:00 +10°C° 0.2 mm 2 mps 740 mmHg 83%
    13:00 +10°C° 0.2 mm 3 mps 740 mmHg 82%
    14:00 +9°C° 0.1 mm 2 mps 740 mmHg 84%
    15:00 +9°C° 0.1 mm 2 mps 740 mmHg 87%
    16:00 +8°C° 0.1 mm 2 mps 740 mmHg 89%
    17:00 +8°C° 0 mm 2 mps 741 mmHg 90%
    18:00 +8°C° 0 mm 1 mps 741 mmHg 91%
    19:00 +8°C° 0 mm 1 mps 741 mmHg 93%
    20:00 +7°C° 0 mm 1 mps 741 mmHg 93%
    21:00 +7°C° 0 mm 1 mps 741 mmHg 93%
    22:00 +7°C° 0 mm 1 mps 742 mmHg 93%
    23:00 +6°C° 0 mm 2 mps 741 mmHg 92%
    Show more